Find Starlink 4395

NORAD ID: 53199 Int'l Des: 2022-084 Owner: SPXS Country: US Constellation: starlink operational
LEOCIRCULARRETROGRADESSO

当前视图

正在加载3D地球...

About Starlink 4395

Starlink 4395 (NORAD 53199) is a starlink constellation satellite (v1.5) launched Jul 22, 2022 by SPXS of US. It operates in LEO, CIRCULAR, RETROGRADE, SSO orbit with a mass of 297.00 kg.

关于 Starlink 4395

正在加载描述...

即将过境

Passes for default location (London). Set your location on the main map for personalized predictions.

高度历史

Loading altitude history...

两行轨道根数

1 53199U 22084L 26164.16040749 -.00011046 00000-0 -76165-3 0 9995
2 53199 97.3639 224.4610 0001970 100.3232 259.8217 15.05705617213741
Epoch: Jun 13, 2026 • Age: 10 hours

当前状态

高度 552.1 km
速度 7.59 km/s
星下点 3.80°N, 120.94°E
发射日期 Jul 22, 2022
运行时间 3.8 years
类型 internet

技术详情

分类 Payload
质量 297.00 kg
干质量 275.00 kg
总质量 297.00 kg
长度 0.20 m
直径 2.80 m
跨度 9.00 m
形状 Box + pan
制造商 SPXS
平台类型 Starlink
阶段状态 In Orbit
所有者/国家 SPXS/US

Most Searched